Date String (YYYY-MM-DD hh:mm:ss) UTC,Instrument flags,Ambient pressure (hPa),Sample flow (lpm),Bypass flow (lpm),Sample temperature (°C),Ambient temperature (°C),ASC tube jacket temperature (°C),LED temperature (°C),Box temperature (°C),Sample RH (%),Span deviation,Mass concentration (μg/m³),Mass concentration (μg/m³),Mass concentration (μg/m³)
DateTimeUTC,F1_M11,P_M11,Q1_M11,Q2_M11,T1_M11,T2_M11,T3_M11,T4_M11,T5_M11,U1_M11,ZSPAN_M11,X0_M11,X2_M11,X1_M11
2023-05-23 08:00:00,,0829.7,5.01,0.00,29.6,27.8,00.0,38.0,31.1,15.9,0003.5,0026.64,0018.33,0017.45
2023-05-23 08:01:00,,0829.7,5.00,0.00,29.6,27.8,00.0,38.0,31.1,15.8,0003.5,0026.58,0018.20,0017.34
2023-05-23 08:02:00,,0829.7,5.00,0.00,29.6,27.8,00.0,38.0,31.1,15.8,0003.5,0026.39,0018.11,0017.26
2023-05-23 08:03:00,,0829.7,5.00,0.00,29.6,27.8,00.0,38.0,31.1,15.8,0003.7,0026.24,0018.00,0017.12
2023-05-23 08:04:00,,0829.7,5.00,0.00,29.6,27.8,00.0,38.0,31.1,15.8,0003.7,0026.04,0017.87,0016.99
2023-05-23 08:05:00,,0829.7,5.01,0.00,29.6,27.7,00.0,38.0,31.1,15.7,0003.8,0025.63,0017.71,0016.86
2023-05-23 08:06:00,,0829.7,5.00,0.00,29.6,27.7,00.0,38.0,31.1,15.7,0003.9,0025.39,0017.56,0016.74
2023-05-23 08:07:00,,0829.7,4.99,0.00,29.6,27.8,00.0,38.0,31.1,15.7,0003.9,0025.30,0017.46,0016.63
2023-05-23 08:08:00,,0829.7,5.00,0.00,29.5,27.7,00.0,38.0,31.1,15.8,0004.0,0024.56,0017.35,0016.49
2023-05-23 08:09:00,,0829.7,5.01,0.00,29.5,27.7,00.0,37.9,31.1,15.7,0004.0,0024.45,0017.24,0016.36
2023-05-23 08:10:00,,0829.7,5.00,0.00,29.5,27.7,00.0,37.9,31.1,15.7,0003.9,0023.91,0017.13,0016.27
2023-05-23 08:11:00,,0829.7,5.00,0.00,29.5,27.7,00.0,37.9,31.1,15.7,0003.9,0023.58,0017.03,0016.18
2023-05-23 08:12:00,,0829.7,5.00,0.00,29.5,27.7,00.0,37.9,31.1,15.7,0003.9,0023.26,0016.93,0016.08
2023-05-23 08:13:00,,0829.7,5.00,0.00,29.5,27.7,00.0,37.9,31.1,15.8,0003.9,0023.23,0016.89,0016.03
2023-05-23 08:14:00,,0829.7,5.01,0.00,29.5,27.7,00.0,37.9,31.1,15.8,0003.8,0023.07,0016.80,0015.99
2023-05-23 08:15:00,,0829.7,5.00,0.00,29.5,27.7,00.0,37.9,31.1,15.8,0003.8,0023.04,0016.76,0015.94
2023-05-23 08:16:00,,0829.7,5.00,0.00,29.5,27.7,00.0,37.9,31.1,15.8,0003.8,0023.10,0016.72,0015.87
2023-05-23 08:17:00,,0829.7,5.01,0.00,29.5,27.7,00.0,37.9,31.1,15.7,0003.7,0023.04,0016.67,0015.80
2023-05-23 08:18:00,,0829.7,5.00,0.00,29.5,27.7,00.0,37.9,31.1,15.8,0003.7,0022.84,0016.59,0015.77
2023-05-23 08:19:00,,0829.7,5.00,0.00,29.5,27.7,00.0,37.9,31.1,15.8,0003.7,0022.66,0016.52,0015.75
2023-05-23 08:20:00,,0829.7,5.01,0.00,29.5,27.7,00.0,37.9,31.1,15.8,0003.7,0022.56,0016.47,0015.73
2023-05-23 08:21:00,,0829.7,4.99,0.00,29.5,27.7,00.0,37.9,31.1,15.8,0003.7,0022.58,0016.46,0015.71
2023-05-23 08:22:00,,0829.7,5.00,0.00,29.5,27.7,00.0,37.9,31.1,15.8,0003.6,0022.57,0016.45,0015.70
2023-05-23 08:23:00,,0829.7,5.00,0.00,29.5,27.7,00.0,37.9,31.1,15.8,0003.6,0022.99,0016.43,0015.71
2023-05-23 08:24:00,,0829.7,5.00,0.00,29.5,27.7,00.0,37.9,31.0,15.8,0003.8,0023.00,0016.39,0015.69
2023-05-23 08:25:00,,0829.7,5.00,0.00,29.5,27.7,00.0,37.9,31.0,15.8,0003.8,0023.15,0016.43,0015.70
2023-05-23 08:26:00,,0829.6,4.99,0.00,29.5,27.7,00.0,37.9,31.0,15.8,0003.8,0023.15,0016.44,0015.72
2023-05-23 08:27:00,,0829.7,5.00,0.00,29.5,27.7,00.0,37.9,31.0,15.8,0003.8,0023.16,0016.50,0015.81
2023-05-23 08:28:00,,0829.7,5.01,0.00,29.5,27.7,00.0,37.9,31.0,15.7,0003.7,0023.34,0016.62,0015.92
2023-05-23 08:29:00,,0829.7,5.01,0.00,29.5,27.7,00.0,37.9,31.0,15.7,0003.7,0023.52,0016.72,0016.00
2023-05-23 08:30:00,,0829.7,5.01,0.00,29.5,27.7,00.0,37.9,31.0,15.7,0003.5,0023.70,0016.83,0016.09
2023-05-23 08:31:00,,0829.7,4.99,0.00,29.5,27.7,00.0,37.9,31.0,15.7,0003.5,0023.77,0016.88,0016.14
2023-05-23 08:32:00,,0829.7,4.98,0.00,29.5,27.7,00.0,37.9,31.0,15.8,0003.5,0023.89,0016.96,0016.22
2023-05-23 08:33:00,,0829.7,5.01,0.00,29.5,27.7,00.0,37.9,31.0,15.9,0003.5,0024.08,0017.03,0016.28
2023-05-23 08:34:00,,0829.7,5.00,0.00,29.5,27.6,00.0,37.9,31.0,15.9,0003.5,0024.17,0017.13,0016.34
2023-05-23 08:35:00,,0829.7,5.01,0.00,29.5,27.7,00.0,37.9,31.0,15.9,0003.4,0023.95,0017.23,0016.44
2023-05-23 08:36:00,,0829.7,5.00,0.00,29.5,27.7,00.0,37.9,31.0,15.9,0003.3,0023.98,0017.26,0016.47
2023-05-23 08:37:00,,0829.7,4.99,0.00,29.5,27.7,00.0,37.8,31.0,15.9,0003.4,0024.13,0017.25,0016.51
2023-05-23 08:38:00,,0829.7,4.99,0.00,29.5,27.7,00.0,37.8,31.0,15.9,0003.3,0024.31,0017.29,0016.53
2023-05-23 08:39:00,,0829.7,5.01,0.00,29.5,27.7,00.0,37.8,31.0,15.9,0003.5,0024.29,0017.27,0016.50
2023-05-23 08:40:00,,0829.7,5.00,0.00,29.4,27.7,00.0,37.8,31.0,15.9,0003.5,0024.21,0017.24,0016.48
2023-05-23 08:41:00,,0829.7,4.99,0.00,29.4,27.6,00.0,37.8,31.0,16.0,0003.6,0024.27,0017.26,0016.48
2023-05-23 08:42:00,,0829.7,4.99,0.00,29.4,27.6,00.0,37.8,31.0,16.0,0003.7,0024.32,0017.28,0016.45
2023-05-23 08:43:00,,0829.7,5.00,0.00,29.4,27.6,00.0,37.8,31.0,16.1,0003.7,0024.29,0017.27,0016.43
2023-05-23 08:44:00,,0829.7,5.01,0.00,29.4,27.6,00.0,37.8,31.0,16.1,0003.7,0024.23,0017.28,0016.42
2023-05-23 08:45:00,,0829.7,5.00,0.00,29.4,27.6,00.0,37.8,31.0,16.2,0003.8,0024.63,0017.28,0016.43
2023-05-23 08:46:00,,0829.7,5.00,0.00,29.4,27.6,00.0,37.8,31.0,16.2,0003.9,0025.34,0017.25,0016.38
2023-05-23 08:47:00,,0829.7,5.00,0.00,29.4,27.6,00.0,37.8,31.0,16.0,0003.8,0025.39,0017.28,0016.38
2023-05-23 08:48:00,,0829.7,4.99,0.00,29.4,27.6,00.0,37.8,31.0,16.1,0003.7,0025.29,0017.27,0016.34
2023-05-23 08:49:00,,0829.7,5.00,0.00,29.4,27.6,00.0,37.8,31.0,16.1,0003.7,0025.08,0017.24,0016.28
2023-05-23 08:50:00,,0829.7,5.00,0.00,29.4,27.6,00.0,37.8,31.0,16.0,0003.6,0025.02,0017.17,0016.21
2023-05-23 08:51:00,,0829.7,5.01,0.00,29.4,27.6,00.0,37.8,31.0,16.3,0003.4,0024.97,0017.13,0016.16
2023-05-23 08:52:00,,0829.7,5.00,0.00,29.4,27.6,00.0,37.8,30.9,16.3,0003.4,0024.87,0017.05,0016.09
2023-05-23 08:53:00,,0829.7,5.00,0.00,29.4,27.6,00.0,37.8,31.0,16.2,0003.4,0024.83,0016.99,0016.06
2023-05-23 08:54:00,,0829.7,5.00,0.00,29.4,27.6,00.0,37.8,31.0,16.1,0003.5,0024.79,0016.94,0016.01
2023-05-23 08:55:00,,0829.7,4.99,0.00,29.4,27.6,00.0,37.8,30.9,16.2,0003.5,0024.67,0016.86,0015.96
2023-05-23 08:56:00,,0829.7,5.01,0.00,29.4,27.6,00.0,37.8,30.9,16.3,0003.3,0024.36,0016.73,0015.83
2023-05-23 08:57:00,,0829.7,5.00,0.00,29.4,27.6,00.0,37.8,30.9,16.2,0003.3,0023.09,0016.60,0015.73
2023-05-23 08:58:00,,0829.7,5.00,0.00,29.4,27.6,00.0,37.8,30.9,16.1,0003.4,0022.87,0016.44,0015.59
2023-05-23 08:59:00,,0829.7,4.99,0.00,29.4,27.5,00.0,37.8,30.9,15.9,0003.4,0023.06,0016.29,0015.46
